Camp Douglas, WI

12:09 AM CDT on August 31, 2016 (GMT -0500)
Volk

Weather History for KVOK - May, 2013

Change the Weather History Date:

Sunday, May 26, 2013

  Actual Average Record
Temperature  
Mean Temperature 53 °F -  
Max Temperature 63 °F 66 °F 83 °F (2014)
Min Temperature 43 °F 51 °F 35 °F (2011)
Degree Days  
Heating Degree Days 12    
Growing Degree Days 3 (Base 50)    
Moisture  
Dew Point 44 °F    
Average Humidity 69    
Maximum Humidity 91    
Minimum Humidity 44    
Precipitation  
Precipitation 0.04 in - - ()
Sea Level Pressure  
Sea Level Pressure 30.24 in    
Wind  
Wind Speed 7 mph (ESE)    
Max Wind Speed 16 mph    
Max Gust Speed 21 mph    
Visibility 10 miles    
Events Rain    
Averages and records for this station are not official NWS values.
T = Trace of Precipitation, MM = Missing Value Source: NWS Daily Summary

Daily Weather History Graph

Daily Weather History Graph

Search for Another Location

Airport or City:

Trip Planner

Search our weather history database for the weather conditions in past years. The results will help you decide how hot, cold, wet, or windy it might be!

Date:

Astronomy

May. 26, 2013 Rise Set
Actual Time 5:24 AM CDT 8:31 PM CDT
Civil Twilight 4:50 AM CDT 9:06 PM CDT
Nautical Twilight 4:05 AM CDT 9:51 PM CDT
Astronomical Twilight 3:12 AM CDT 10:45 PM CDT
Moon 10:18 PM CDT (5/26) 6:54 AM CDT (5/26)
Length of Visible Light 16h 16m
Length of Day
15h 06m
Waning Gibbous, 96% of the Moon is Illuminated
May 26
Waning Gibbous
May 31
Last Quarter
Jun 8
New
Jun 16
First Quarter
Jun 23
Full

Hourly Weather History & Observations

Time (CDT) Temp. Windchill Dew Point Humidity Pressure Visibility Wind Dir Wind Speed Gust Speed Precip Events Conditions
12:58 AM 43.7 °F 42.1 °F 41.2 °F 91% 30.31 in 10.0 mi SE 3.5 mph - N/A   Mostly Cloudy
1:58 AM 48.2 °F - 43.2 °F 83% 30.30 in 10.0 mi ESE 2.3 mph - N/A   Overcast
2:58 AM 48.0 °F - 44.1 °F 86% 30.28 in 10.0 mi East 6.9 mph - N/A   Overcast
3:58 AM 45.5 °F 40.8 °F 39.0 °F 78% 30.27 in 10.0 mi East 9.2 mph - N/A   Partly Cloudy
4:58 AM 46.2 °F 43.3 °F 36.9 °F 70% 30.28 in 10.0 mi SE 5.8 mph - N/A   Clear
5:58 AM 46.0 °F - 37.8 °F 73% 30.30 in 10.0 mi SE 2.3 mph - N/A   Overcast
6:58 AM 46.9 °F - 38.1 °F 71% 30.30 in 10.0 mi East 8.1 mph - N/A   Clear
7:58 AM 49.8 °F - 37.6 °F 63% 30.30 in 10.0 mi ESE 5.8 mph - N/A   Clear
8:58 AM 53.8 °F - 37.4 °F 54% 30.30 in 10.0 mi ESE 8.1 mph - N/A   Clear
9:58 AM 57.9 °F - 39.7 °F 51% 30.30 in 10.0 mi SE 10.4 mph - N/A   Clear
10:58 AM 59.0 °F - 39.7 °F 49% 30.29 in 10.0 mi East 15.0 mph 18.4 mph N/A   Partly Cloudy
11:58 AM 61.7 °F - 40.3 °F 45% 30.28 in 10.0 mi ESE 10.4 mph - N/A   Scattered Clouds
12:58 PM 62.1 °F - 39.9 °F 44% 30.25 in 10.0 mi SE 11.5 mph 20.7 mph N/A   Mostly Cloudy
1:58 PM 62.8 °F - 40.8 °F 45% 30.24 in 10.0 mi ESE 9.2 mph - N/A   Partly Cloudy
2:58 PM 63.5 °F - 42.6 °F 47% 30.22 in 10.0 mi East 16.1 mph - N/A   Scattered Clouds
3:24 PM 60.8 °F - 46.4 °F 59% 30.20 in 10.0 mi ESE 10.4 mph - N/A   Light Drizzle
3:58 PM 56.7 °F - 50.7 °F 80% 30.22 in 10.0 mi South 6.9 mph - 0.00 in Rain Light Rain
4:58 PM 55.2 °F - 51.6 °F 88% 30.21 in 10.0 mi SSE 6.9 mph - 0.03 in Rain Light Rain
5:31 PM 55.4 °F - 51.8 °F 88% 30.17 in 10.0 mi SE 8.1 mph - N/A   Overcast
5:58 PM 57.0 °F - 52.2 °F 84% 30.18 in 10.0 mi SSE 12.7 mph - 0.01 in   Overcast
6:58 PM 56.7 °F - 50.2 °F 79% 30.18 in 10.0 mi SE 8.1 mph - N/A   Overcast
7:58 PM 56.5 °F - 48.6 °F 75% 30.20 in 10.0 mi ESE 5.8 mph - N/A   Overcast
8:58 PM 56.1 °F - 46.9 °F 71% 30.19 in 10.0 mi ESE 6.9 mph - N/A   Overcast
9:58 PM 55.6 °F - 46.6 °F 72% 30.17 in 10.0 mi East 8.1 mph - N/A   Overcast
10:58 PM 55.8 °F - 46.2 °F 70% 30.17 in 10.0 mi ESE 9.2 mph - N/A   Overcast